CAPE
772 930 1718 1619 1696 1876 1926 1653 1750 1614 1615 1743 1294 1400 1053 908 976 1059 909 883 824 926 1021 1087 944 705 1331 1115 715 1116 984 1035 1069 1549 1740 1606 1298 1643 1864 2557 2453 2204 2361
786 1078 1973 1795 1961 1897 1978 1891 1511 1191 1357 1858 1517 1274 1152 1038 918 951 914 898 802 928 1021 1143 1151 1150 1462 1136 1104 1345 1183 1178 1377 1658 2039 2215 1985 2329 1979 1986 2156 2424 2323
994 1047 1537 1634 2042 1818 1890 1777 1738 1680 1707 1479 1699 1572 1385 1261 959 985 949 797 1010 1350 1037 920 1019 1126 1226 1220 1341 1415 1313 1497 1774 1917 1769 822 1899 2277 2230 1979 2198 2603 2340
701 1045 1032 1450 1532 2127 1832 1880 1842 1634 1449 1470 1583 1440 1286 1101 1037 965 782 944 1083 1134 1089 1329 1421 1506 1206 1422 1197 1170 1742 1565 1160 1353 1488 6 1625 2403 2740 2225 2074 2799 2450
660 1113 1290 1669 1995 2075 1595 1203 1370 1454 1560 1506 1504 1428 1194 1099 1046 905 1067 958 937 1108 1017 1258 1249 1103 1113 1231 1239 1411 1477 1165 1096 1264 1431 665 1508 2247 2004 1777 2557 2846 2598
861 1723 1416 1756 2013 1997 1261 1324 955 988 727 825 1273 1285 1191 1353 1438 1194 1245 1302 1368 953 1126 1224 997 1201 1059 1073 1089 1180 1078 950 1122 1383 544 1421 1719 2082 745 748 1227 2141 2785
951 1388 1438 1896 2003 1963 1814 2087 1445 1307 1498 1484 751 835 1064 786 793 1403 949 740 851 1235 1255 759 739 697 756 841 892 935 959 952 1453 612 661 1416 1313 1834 1912 2139 1887 2222 2445
374 710 1449 1898 2062 2020 1794 1452 1294 1158 1316 1128 1115 1239 1236 1143 1202 932 1144 1222 1242 1093 751 584 528 571 640 688 916 903 767 997 1140 840 910 1560 1248 1766 2182 2290 2189 2158 2544
333 1101 1181 1027 1405 1667 1712 1687 1368 1035 1232 1015 917 886 1150 1242 1155 1255 1359 1197 923 753 751 680 780 569 697 911 855 879 539 801 1652 900 940 874 1435 2128 2026 2146 2283 2232 2257
489 1220 1249 1149 1270 1224 1411 1095 949 1149 1051 1207 682 875 1144 1249 1026 1097 862 939 920 827 993 969 405 339 684 703 1177 610 382 370 332 895 1451 653 1196 2181 2205 2176 2206 2270 2151
654 1046 1247 1335 1292 1200 1408 1013 580 937 1058 521 221 569 347 693 237 38 746 911 919 1141 1193 1030 884 484 341 751 813 690 489 1008 468 937 1121 391 682 1374 1898 2085 2139 1981 1890
636 893 891 985 873 1092 1322 980 404 575 365 154 723 411 946 243 388 480 235 242 530 736 866 980 1108 421 566 429 533 450 112 491 368 777 693 333 796 1319 1627 1786 2134 2011 1737
549 829 652 650 1042 810 939 864 705 604 536 551 895 1059 223 127 62 54 427 74 231 162 579 1039 884 333 182 377 340 897 88 222 678 648 699 444 630 864 1183 1751 1728 1764 1846
485 627 772 880 1045 919 681 447 566 434 592 201 138 137 562 385 185 556 558 587 932 932 1248 634 436 66 131 700 659 506 586 431 630 845 789 342 355 941 1432 1525 1587 1784 1826
767 665 663 951 1149 869 540 444 336 438 106 34 65 431 431 253 448 470 935 908 724 689 926 534 572 221 111 371 728 932 740 401 604 667 1104 450 289 607 1212 1495 1806 1887 1839
543 652 812 854 1133 892 648 341 256 339 27 93 95 432 920 841 479 967 819 793 557 662 718 786 654 851 500 661 983 1249 956 990 955 1157 919 1115 572 824 1063 1485 1930 1701 1531
590 574 701 736 875 901 760 569 582 342 0 110 164 715 462 985 1082 1546 684 1022 916 1237 1532 1330 1164 966 871 556 943 1345 1110 1004 1061 1276 1227 1068 1361 832 842 1261 1546 1458 1548
506 441 512 468 549 547 475 133 0 133 10 219 73 154 766 1185 1712 1426 1068 1278 1439 1299 916 963 1167 1010 930 593 700 1001 1251 1063 955 1286 1197 770 1354 1438 846 789 1043 1252 1156
338 379 446 339 250 262 105 188 165 0 45 186 215 174 939 1093 1257 1443 1211 1267 1151 1119 924 1160 1048 1267 994 815 820 848 1030 995 911 890 811 1207 1200 1257 1323 522 706 1012 905
269 339 501 405 296 230 200 371 85 63 60 271 231 290 1326 878 1003 1170 723 1227 1263 1073 826 1290 1071 1345 855 1111 915 825 802 862 1017 931 933 1080 1035 910 1162 1274 697 528 517
136 385 489 403 446 376 310 120 114 35 40 110 71 771 1105 899 977 1371 902 1347 959 727 1040 1246 1401 1405 1052 790 684 329 620 668 729 866 900 990 937 885 911 1109 874 952 769
327 343 544 596 713 473 288 173 160 126 74 130 152 679 1008 1213 1059 1051 978 575 603 553 1063 1070 1266 762 742 646 802 495 366 412 260 673 994 988 1016 792 662 844 755 1033 1021
425 564 700 918 892 627 392 167 302 671 1098 796 387 1001 859 1443 1526 1592 1524 1658 1883 1376 828 1686 1411 1590 1180 924 902 442 273 82 445 419 878 738 1234 855 588 421 611 1034 683
412 601 777 1171 1079 977 405 285 541 579 186 617 778 1044 907 1028 1344 1589 1793 1704 1606 1378 1366 1055 1245 1555 1673 1017 671 760 840 1135 413 374 607 667 845 1067 794 681 838 722 831
509 413 724 1044 1036 1001 506 742 618 673 523 744 692 1332 1255 1396 1660 1427 1449 1657 1293 1220 1570 1781 1649 1878 1844 976 786 1163 1404 712 407 762 395 881 658 397 548 647 417 366 498
624 335 530 1024 957 1029 819 759 888 731 574 729 540 540 770 1028 1070 1464 1564 1833 1701 1473 1664 1445 1780 1793 1831 1820 1601 1095 1169 920 715 541 455 686 537 640 675 605 836 658 895
CIN
-6 -40 -1 -1 -1 0 0 -3 0 -3 -2 0 0 0 -2 -17 -17 -6 -4 -4 -7 0 -1 -6 -10 -18 -1 -6 -22 -8 -14 -18 -20 -15 -20 -48 -68 -46 -38 -11 -6 -4 -9
-8 -31 -1 -2 0 0 0 0 -6 -23 -12 0 -1 0 -7 -13 -19 -14 -12 -9 -8 -1 0 0 -8 -6 -1 -7 -11 -5 -17 -23 -26 -21 -17 -15 -14 -2 -28 -25 -25 -11 -21
-9 -44 -8 -4 -1 0 0 0 -1 -4 -1 -3 0 0 -1 -2 -11 -4 -4 -13 -6 0 0 0 0 -8 -5 -8 -5 -2 -15 -20 -20 -19 -7 -27 -23 -11 -19 -10 -5 -10 -14
-11 -2 -24 -12 -3 0 0 0 0 -1 -2 0 0 -1 -1 -2 -5 -2 -6 -7 -6 0 0 -2 0 0 0 0 -5 -6 -3 -20 -39 -27 -8 -11 -4 -5 0 -10 -10 0 -5
-32 -1 -34 -6 0 0 -2 -34 -12 -11 0 0 0 0 0 0 -1 -2 0 -3 -12 -2 -4 -1 0 0 0 0 -4 -5 -14 -31 -48 -34 -4 -83 -8 -1 -10 -17 -1 0 -3
-9 -6 -41 -3 0 0 -11 -18 -39 -37 -44 -22 0 0 0 0 0 0 0 0 0 -5 -2 -3 0 0 -1 -6 -12 -13 -26 -40 -44 -15 -5 -8 -2 -1 -82 -75 -18 -1 0
-5 -8 -13 0 0 0 0 0 -6 -7 0 0 -16 -3 -1 -1 0 0 -1 -7 -3 0 -1 -10 -14 -21 -21 -19 -17 -19 -30 -35 -9 -381 -3 -4 -35 -2 -1 -1 -3 -3 -1
-4 -5 -3 -1 0 -1 0 0 -3 -5 0 0 -1 0 -2 -2 0 -1 0 0 0 -1 -11 -24 -33 -23 -13 -16 -16 -32 -33 -47 -14 -3 -2 -15 -58 -22 -1 0 -5 -6 0
-4 -15 -3 -2 -1 -1 0 0 0 -8 0 0 -10 -13 -2 -1 0 0 0 0 -11 -24 -22 -24 -19 -15 -12 -7 -18 -32 -45 -40 -14 -5 -3 -40 -47 -5 -5 -2 0 -1 -1
-3 -15 -9 -2 -2 -3 -1 -6 -9 -1 0 -1 -13 -10 -7 -2 -8 -9 -12 -11 -17 -25 -12 -10 -47 -37 -6 -17 -21 -45 -64 -52 -26 -4 -13 -77 -54 -6 0 0 0 0 0
-10 -8 -6 -1 -1 -5 -1 -4 -27 -1 -2 -20 -37 -20 -45 -3 -19 -59 -13 -19 -22 -8 -1 -8 -15 -39 -43 -11 -10 -51 -68 -8 -5 -19 -24 -103 -94 -47 -19 -4 -3 -3 -5
-4 -2 -5 -2 -3 -4 -2 -2 -11 -2 -2 -26 -11 -12 -15 -2 -5 -5 -27 -61 -44 -37 -20 -12 -4 -27 -17 -5 -22 -24 -36 -48 -1 -3 -51 -102 -89 -48 -29 -19 -1 -2 -7
-3 -3 -4 -4 -1 -4 -11 -8 -11 -1 -6 -3 -11 -2 -6 -4 -12 -5 -8 -60 -29 -61 -34 -7 -16 -35 -35 -16 -45 -2 -5 -3 -19 -2 -73 -84 -88 -73 -45 -11 -11 -9 -6
-7 -3 -10 -10 -16 -4 -13 -20 -1 -4 -4 -13 -46 -47 -2 -8 -11 -3 -5 -10 -5 -20 -5 -11 -13 -67 -45 -7 -1 -28 -13 -1 -4 -6 -64 -82 -102 -66 -31 -19 -10 -1 0
-4 -4 -2 -8 -5 -6 -12 -15 -5 -2 -5 -13 -26 -3 -17 -5 -4 -2 -2 -2 -2 -2 -2 -4 -4 -54 -66 -28 -1 -2 -11 -1 0 -3 -19 -78 -108 -92 -51 -23 -3 0 0
-2 -3 -2 -3 -1 -5 -4 -10 -10 -5 -7 -2 -2 -2 -6 -4 -3 -1 -1 -2 -2 0 -1 -1 -1 -13 -23 -1 -2 -2 -1 -5 -2 -4 -1 -46 -73 -78 -69 -31 -2 -3 -7
-3 -3 -1 -2 -1 -1 -1 -1 -7 -8 -1 -3 -2 -2 -1 -5 -5 -10 -3 -2 -3 -3 -6 -4 -3 -1 -11 -9 -1 0 -2 -4 -2 -1 -5 -4 -45 -93 -82 -47 -21 -18 -9
-3 -4 -10 -2 -1 -4 -2 -13 -4 -30 -53 -8 -3 -1 -1 0 -1 -9 -5 -5 -2 -3 -2 -6 -2 -5 -3 -1 -1 -3 -4 -11 -1 -1 -1 -2 -25 -22 -84 -73 -52 -33 -29
-5 -12 -6 -5 -6 -2 -8 -2 -16 -9 -24 -7 -10 -2 -9 -1 -1 -6 -3 -17 -18 -2 -5 -3 -8 -4 -6 -1 -3 -1 -3 -2 -2 -2 -3 -2 -3 -17 -14 -66 -61 -42 -38
-5 -10 -7 -5 -3 -3 -5 -2 -8 -8 -4 -1 -14 -6 -4 -1 -1 0 -4 -2 -4 -6 -30 -7 -13 -4 -4 -9 -8 -11 -1 -2 -3 -3 -2 -2 -1 -3 -25 -37 -48 -45 -55
-18 -6 -1 -7 -4 -1 -9 -6 -11 -2 -3 -1 -2 -2 -1 -1 0 -1 -1 -5 -3 -2 -3 -4 -1 -6 -5 -4 -2 -1 -1 -8 -1 -3 -2 -5 -2 -3 -3 -2 -1 -13 -46
-2 -6 -5 -3 -3 -2 -2 -4 -4 -4 -6 -8 -6 -2 -1 0 -1 -2 -6 -4 -3 -3 -1 -1 -1 -26 -2 -4 -12 -2 -3 -3 -11 -3 -4 -2 -1 -2 -2 -1 -2 -5 -25
-3 -2 -3 -2 -1 -1 -2 -6 -2 -1 -2 -5 -4 -2 -1 -1 -1 -2 -1 -4 -2 -6 -6 -3 -2 -8 -4 -3 -22 -93 -15 -37 -2 -3 -3 -2 -5 -4 -3 -2 -1 -2 -1
-3 -4 -1 -4 -1 -1 -3 -8 -4 -2 -2 -2 -4 -2 -10 -1 -2 -1 -2 -1 -1 -3 -20 -2 -3 -7 -11 -5 -19 -11 -23 -10 -10 -4 -5 -3 -3 -4 -10 -8 -3 -1 -1
-2 -4 -2 -5 -4 -4 -7 -5 -3 -5 -4 -2 -2 -6 -5 -10 -9 -3 -1 -1 -2 -1 -3 -9 -3 -1 -8 -9 -2 -3 -8 -3 -16 -8 -6 -6 -3 -3 -6 -4 -4 -2 -6
-4 -2 -3 -3 -8 -3 -5 -11 -2 -3 -12 -3 -14 -14 -9 -18 -31 -20 -2 -1 -1 -1 -5 -1 -1 -1 -7 -9 -11 -13 -6 -2 -3 -2 -21 -12 -4 -2 -3 -7 -4 -12 -4
Wind_Speed
13 15 16 17 13 13 13 14 16 18 22 23 22 21 23 23 22 23 21 20 20 18 18 18 17 15 15 15 15 13 13 12 13 15 13 9 11 16 18 19 11 11 12
12 15 15 14 14 9 11 13 14 15 18 21 21 22 20 20 21 20 18 19 18 18 18 17 17 16 16 16 15 16 14 14 15 16 10 15 15 17 16 11 14 11 12
10 13 14 15 15 6 11 13 13 15 17 19 20 20 18 19 19 19 19 19 17 18 18 17 17 17 16 16 16 16 15 15 16 16 7 21 14 17 15 13 18 16 13
11 12 12 17 11 6 7 14 17 16 17 16 17 16 15 17 18 18 19 18 18 18 18 17 17 17 17 17 17 16 16 15 15 17 15 24 22 19 16 12 10 10 11
16 14 14 18 14 7 5 15 16 15 15 15 15 14 14 14 18 19 19 18 19 19 19 18 18 18 17 17 18 17 17 13 17 16 15 17 5 19 15 7 15 13 15
13 11 12 12 13 12 11 11 16 17 15 13 13 15 12 13 18 19 19 18 19 19 19 19 17 19 18 18 18 18 13 16 17 18 14 15 14 14 19 20 23 16 9
14 12 11 10 10 9 10 11 13 15 17 15 15 14 12 16 20 19 19 18 19 20 19 19 18 19 19 18 19 18 16 17 18 13 11 11 11 11 10 9 10 13 15
11 12 11 11 10 7 5 9 11 14 14 15 14 14 10 15 20 20 19 19 19 18 18 18 17 17 15 18 18 18 17 18 16 13 11 11 11 10 9 9 8 10 15
13 8 11 16 16 15 7 9 11 13 14 14 13 12 11 13 20 20 19 19 19 17 17 18 17 17 16 17 17 18 18 20 19 7 19 14 13 12 10 9 9 9 12
10 5 5 11 24 7 9 9 11 12 13 14 13 16 21 21 20 20 19 19 18 17 16 15 14 14 16 16 18 19 19 21 10 14 10 13 17 15 12 12 13 12 15
8 6 19 8 20 10 7 9 10 12 14 16 18 22 22 22 19 18 15 17 17 15 14 13 13 14 15 16 18 19 19 20 16 11 9 12 13 19 17 17 17 8 16
14 7 26 4 7 6 8 9 11 13 15 17 22 23 21 16 13 10 18 17 16 15 14 13 11 13 15 8 17 19 20 16 20 2 9 11 10 19 19 19 20 18 14
14 6 3 10 6 7 8 8 8 13 18 16 23 22 17 20 20 19 19 19 17 16 14 12 11 14 14 10 17 19 21 20 10 16 7 9 11 17 16 12 11 12 13
8 12 4 8 6 8 7 10 12 14 17 16 20 23 14 21 11 16 11 17 16 17 14 11 15 14 13 13 14 16 21 22 20 21 11 9 11 12 11 10 9 9 9
11 9 6 5 5 6 7 7 7 12 13 16 4 22 18 20 10 18 12 15 17 15 16 15 16 14 13 13 14 15 19 23 22 21 10 13 11 11 10 10 9 10 10
9 9 6 7 6 6 7 6 6 20 5 15 19 7 18 19 11 18 17 16 15 15 14 14 15 13 13 13 13 15 19 22 22 22 18 14 12 11 10 10 10 10 11
10 8 5 9 8 7 6 6 5 23 9 22 13 9 19 20 12 17 17 16 15 17 14 15 15 13 14 13 14 14 17 21 22 20 21 15 11 11 11 11 10 11 12
10 10 6 11 9 8 6 7 10 6 26 23 15 5 13 21 19 18 18 14 17 15 14 14 13 14 13 14 14 15 17 20 20 18 18 19 12 12 12 11 11 12 11
10 14 7 3 8 7 6 10 5 3 26 20 20 20 7 21 19 20 17 13 15 14 15 12 12 12 15 12 14 17 17 18 18 17 17 16 17 13 13 14 13 13 12
9 14 9 4 3 7 8 22 24 22 27 24 20 17 8 22 14 19 18 13 11 11 11 5 12 11 13 14 14 17 17 17 17 17 16 16 17 16 14 14 14 15 13
11 11 11 8 2 7 10 10 28 27 26 23 23 12 13 21 4 12 19 11 12 13 11 13 12 12 15 14 15 17 17 17 17 17 16 16 16 15 17 15 15 15 14
11 12 11 10 6 12 13 15 17 21 2 23 17 5 16 9 12 16 17 13 13 16 11 13 13 14 15 14 15 18 17 17 17 17 16 16 16 16 16 15 16 16 15
11 10 9 7 10 11 6 1 7 11 12 4 6 11 6 11 11 14 11 18 12 13 10 11 13 14 16 14 16 11 11 14 7 19 17 17 16 17 17 16 16 16 16
10 10 8 7 11 11 3 2 2 1 3 12 8 5 14 6 8 9 12 13 10 14 15 12 13 16 16 16 16 14 15 15 17 8 18 18 17 17 14 17 17 16 16
9 10 10 6 7 12 6 13 1 7 3 5 7 10 13 14 13 16 8 9 10 11 11 13 12 16 18 17 17 15 14 16 14 15 18 18 18 17 16 16 15 16 16
11 11 11 9 8 7 6 6 2 4 22 7 3 4 16 4 13 12 10 8 9 11 10 12 12 15 17 19 18 17 17 13 14 15 12 15 15 15 14 14 14 13 14
Wind_Direction
74 72 69 69 58 55 56 53 60 74 90 93 80 67 75 77 72 79 68 67 73 56 61 63 65 68 69 65 52 62 52 67 42 54 67 46 58 88 96 101 54 40 48
80 81 71 64 63 40 46 49 52 58 72 89 85 91 68 70 75 73 55 77 52 61 67 59 59 58 65 70 65 56 26 76 78 72 134 90 90 113 93 49 96 63 58
72 77 70 73 65 24 47 49 50 55 64 74 87 90 67 77 100 87 96 82 48 58 62 58 59 58 57 63 57 53 58 73 77 86 69 205 87 107 84 54 83 82 69
76 79 68 81 69 24 20 55 67 64 67 64 72 66 52 62 79 79 105 90 63 64 62 52 58 62 69 71 70 65 64 86 136 107 139 132 116 103 83 53 51 65 63
99 83 77 85 70 33 4 60 68 60 58 59 57 45 42 33 92 96 105 79 84 83 80 73 61 71 67 68 71 70 59 243 208 194 170 84 272 88 58 13 75 78 90
91 68 76 74 71 67 56 48 69 74 56 37 37 57 97 34 80 103 98 69 94 105 88 89 140 85 81 79 89 83 140 224 210 206 225 29 28 32 121 166 150 103 44
94 70 77 70 60 53 56 45 53 64 69 60 57 51 30 189 126 106 89 80 100 105 97 104 95 115 113 105 123 134 197 205 204 200 251 340 341 358 5 9 32 62 84
78 83 77 75 68 36 340 33 33 57 58 60 52 54 339 119 150 116 90 89 85 82 94 122 123 105 79 126 122 144 182 195 213 218 259 336 351 350 351 351 357 28 80
94 72 78 102 102 233 289 18 32 49 62 62 57 39 53 218 154 126 108 125 120 145 151 124 126 96 73 105 110 123 160 185 190 326 157 44 39 20 346 331 336 4 59
95 20 6 87 187 73 61 29 33 48 64 72 55 210 144 141 145 140 138 129 140 156 141 133 154 144 149 121 126 126 142 185 13 70 348 35 66 58 256 265 269 276 101
295 51 129 79 194 276 4 33 42 60 73 92 109 175 163 154 137 120 43 97 129 133 140 159 182 181 177 154 146 139 144 179 218 275 9 25 38 172 206 223 230 176 124
113 158 179 43 299 353 345 46 66 82 91 103 182 171 174 211 240 319 119 134 152 157 154 159 163 191 192 262 190 178 158 247 165 249 2 15 353 160 179 205 198 165 119
114 90 19 289 338 10 58 33 11 81 126 94 184 198 209 174 146 163 123 133 144 132 132 108 124 195 196 172 119 165 172 159 306 205 11 358 334 155 139 87 89 114 121
88 117 24 313 338 339 21 85 108 106 125 104 164 189 229 186 230 220 291 105 142 119 123 127 113 178 202 237 200 229 198 183 167 183 77 50 50 54 52 63 60 64 76
112 107 71 339 1 15 28 44 46 105 92 119 180 198 225 207 292 146 257 184 126 140 108 110 113 142 180 199 215 228 187 164 189 192 82 90 80 61 49 36 34 27 32
109 116 74 85 68 48 1 12 52 161 14 245 208 332 226 225 298 179 155 164 157 144 139 118 117 142 177 185 192 197 171 204 186 206 179 118 105 76 65 33 23 20 10
124 118 76 97 86 70 36 18 17 230 101 217 261 303 227 211 296 222 163 167 158 102 143 125 127 154 144 166 166 152 152 186 183 168 195 154 97 72 79 81 63 30 13
117 126 105 121 100 83 55 67 102 344 177 217 257 3 256 209 239 184 179 130 74 143 161 137 141 145 148 136 162 142 148 164 162 149 170 186 115 93 101 92 94 97 70
118 135 110 71 101 75 59 103 34 340 210 235 239 240 8 199 166 202 194 133 16 159 117 173 149 175 134 156 167 145 148 162 141 148 164 161 186 114 112 108 111 122 110
108 134 117 99 77 85 84 172 156 139 204 216 242 260 352 194 135 187 206 289 271 121 48 277 194 192 189 138 147 174 149 158 161 152 133 145 171 157 112 104 119 134 136
113 127 132 129 74 102 107 109 180 185 183 225 235 290 299 234 345 112 205 53 126 179 155 217 172 169 208 122 194 147 148 159 157 158 143 142 137 143 156 131 166 134 136
115 128 135 138 127 130 130 132 165 240 0 245 271 15 271 332 120 156 186 265 166 210 114 172 185 193 180 163 186 160 131 141 151 144 137 149 121 145 149 133 152 136 127
119 131 136 139 144 136 120 272 282 282 291 353 319 306 0 128 119 150 104 200 268 165 157 110 161 167 221 169 195 335 206 139 129 134 111 147 102 152 150 114 142 131 157
118 123 138 145 145 145 151 141 120 86 331 295 312 354 301 29 93 98 131 151 103 183 210 149 151 178 188 208 167 185 256 234 77 164 108 109 133 164 67 159 106 122 129
116 121 132 145 151 151 158 267 181 286 341 332 323 317 302 311 311 170 99 113 109 143 65 170 149 165 185 209 230 249 229 197 212 164 149 107 128 115 104 158 98 121 118
121 120 126 135 151 162 159 167 189 272 262 311 55 24 286 21 145 141 144 97 106 146 132 166 146 157 172 226 265 272 203 180 129 150 46 120 94 89 67 61 97 90 30